Home   Weather   Qyzylorda   Past weeks

Flag for Kazakhstan Past Weather in Qyzylorda, Kazakhstan — Yesterday and Last 2 Weeks

Now
54 °F

Clear.


Feels Like: 51 °F
Forecast: 57 / 86 °F
Wind: 8 mph from East

Location: Kzyl-Orda

Current Time: Apr 24, 2017 at 6:14:05 am

Latest Report: Apr 24, 2017 at 5:00 am


Visibility: 10 mi

Pressure: 30.12 "Hg

Humidity: 47%

Dew Point: 34 °F

Location of QyzylordaLocation

Past Weather in Qyzylorda — Graph

°F

Qyzylorda Temperature Yesterday

Maximum temperature yesterday: 75 °F (at 3:30 pm)
Minimum temperature yesterday: 55 °F (at 2:30 am)
Average temperature yesterday: 65 °F

High & Low Weather Summary for the Past Weeks

 TemperatureHumidityPressure
High82 °F (Apr 15, 6:00 pm)100% (Apr 13, 6:30 am)30.30 "Hg (Apr 13, 6:30 am)
Low41 °F (Apr 9, 7:00 am)11% (Apr 9, 4:00 pm)29.62 "Hg (Apr 15, 4:30 pm)
Average62 °F49%30.00 "Hg
* Reported Apr 9 4:00 am — Apr 24 4:00 am, Qyzylorda, Weather by CustomWeather, © 2017

Note: Actual official high and low records may vary slightly from our data, if they occured in-between our weather recording intervals... More about our weather records

Advertising

Qyzylorda Weather History for the Previous 24 Hours

Scroll right to see more
 ConditionsComfort  
Time TempWeatherWind HumidityBarometerVisibility
4:00 am
Mon, Apr 24
54 °FClear.8 mph47%30.12 "Hg10 mi
3:00 am54 °FClear.8 mph44%30.15 "Hg10 mi
2:00 am54 °FClear.6 mph44%30.15 "Hg10 mi
1:00 am54 °FClear.3 mph47%30.15 "Hg10 mi
12:00 am54 °FClear.3 mph47%30.15 "Hg10 mi
11:00 pm
Sun, Apr 23
57 °FClear.6 mph41%30.15 "Hg10 mi
10:00 pm61 °FClear.6 mph34%30.15 "Hg10 mi
9:00 pm64 °FSunny.8 mph32%30.12 "Hg10 mi
8:00 pm70 °FSunny.10 mph29%30.12 "Hg10 mi
7:00 pm73 °FSunny.10 mph27%30.12 "Hg10 mi
6:00 pm75 °FPassing clouds.10 mph24%30.12 "HgN/A
5:30 pm75 °FPassing clouds.10 mph24%30.12 "HgN/A
5:00 pm75 °FPassing clouds.10 mph25%30.12 "HgN/A
4:30 pm75 °FPassing clouds.10 mph24%30.12 "HgN/A
4:00 pm75 °FPassing clouds.13 mph25%30.12 "HgN/A
3:30 pm75 °FPassing clouds.10 mph27%30.12 "HgN/A
3:00 pm73 °FPassing clouds.6 mph31%30.12 "HgN/A
2:30 pm73 °FPassing clouds.10 mph31%30.12 "HgN/A
1:30 pm72 °FPassing clouds.10 mph38%30.15 "HgN/A
1:00 pm70 °FPassing clouds.10 mph40%30.15 "HgN/A
12:30 pm70 °FPassing clouds.8 mph40%30.15 "HgN/A
12:00 pm70 °FSunny.10 mph43%30.15 "Hg10 mi
11:30 am70 °FPassing clouds.8 mph38%30.12 "HgN/A
11:00 am70 °FPassing clouds.13 mph38%30.12 "HgN/A
10:30 am70 °FSunny.17 mph35%30.12 "Hg10 mi
10:00 am68 °FSunny.17 mph38%30.09 "Hg10 mi
9:30 am66 °FSunny.13 mph43%30.09 "Hg10 mi
8:30 am64 °FSunny.13 mph49%30.09 "Hg10 mi
8:00 am61 °FSunny.10 mph55%30.09 "Hg10 mi
7:30 am59 °FClear.8 mph55%30.09 "Hg10 mi
7:00 am57 °FClear.8 mph59%30.09 "Hg10 mi
6:30 am57 °FClear.8 mph59%30.09 "Hg10 mi
6:00 am57 °FClear.8 mph55%30.07 "Hg10 mi
Weather by CustomWeather, © 2017

See weather overviewHow to use our weather pages